Weather Service Report


901 
ASUS44 KLUB 210810
RWRLUB
WEST TEXAS WEATHER ROUNDUP
NATIONAL WEATHER SERVICE LUBBOCK TX
200 AM CST TUE NOV 21 2017

NOTE: "FAIR" INDICATES FEW OR NO CLOUDS BELOW 12,000 FEET WITH NO
SIGNIFICANT WEATHER AND/OR OBSTRUCTIONS TO VISIBILITY.

TXZ004-006>008-010-012-014-016-OKZ002-210900-
TEXAS PANHANDLE/OKLAHOMA PANHANDLE
  
CITY           SKY/WX    TMP DP  RH WIND       PRES   REMARKS
AMARILLO       CLOUDY    45  14  28 NW8       29.79F                  
BORGER         CLOUDY    41  21  44 SW6       29.78F                  
CANADIAN       CLOUDY    35  27  74 CALM      29.77S                  
DALHART        CLOUDY    46  18  32 NW12      29.84R                  
DUMAS          CLOUDY    40  18  41 NW9       29.81R WCI  34          
GUYMON         CLOUDY    41  18  39 NW9       29.80R                  
HEREFORD       CLOUDY    49  13  23 MISG      29.82R                  
PAMPA          CLOUDY    41  25  52 W5        29.77F                  
PERRYTON       CLOUDY    35  22  59 N7        29.79R WCI  29          
$$

TXZ026-029-035-045-048-210900-
SOUTHERN PANHANDLE/SOUTH PLAINS/ROLLING PLAINS
  
CITY           SKY/WX    TMP DP  RH WIND       PRES   REMARKS
CHILDRESS      CLOUDY    44  30  57 S3        29.75F                  
SEMINOLE       CLOUDY    52  19  26 W13       29.86F                  
LUBBOCK        CLOUDY    43  17  35 W9        29.79F                  
PLAINVIEW      CLOUDY    44  11  25 NW9       29.78S                  
SNYDER         PTCLDY    46  33  59 S7        29.84F                  
$$

TXZ052-054-060>062-072-078-127-140-154-169-210900-
PERMIAN BASIN/CONCHO VALLEY/BIG COUNTRY/EDWARDS PLATEAU  
  
CITY           SKY/WX    TMP DP  RH WIND       PRES   REMARKS
ABILENE        CLOUDY    53  36  52 SW14G22   29.83F                  
BIG SPRING     PTCLDY    47  34  59 S10       29.88F                  
BROWNWOOD      MOCLDY    46  34  61 CALM      29.90S                  
JUNCTION       PTCLDY    51  38  60 CALM      29.91F                  
MIDLAND        PTCLDY    49  32  52 SW8       29.87F                  
ODESSA           N/A     47  31  53 SW9       29.88F                  
SAN ANGELO     CLOUDY    53  34  48 SW20G26   29.87F                  
SONORA         CLOUDY    50  37  62 SW7       29.96F                  
SWEETWATER     CLOUDY    51  35  55 S15       29.85F                  
WINK           CLOUDY    40  26  57 E8        29.88S WCI  34          
$$

TXZ055-058-074-075-080-082-210900-
FAR WEST/SOUTHWEST MOUNTAINS/TRANS PECOS
  
CITY           SKY/WX    TMP DP  RH WIND       PRES   REMARKS
ALPINE         CLOUDY    58  15  18 SW10      30.05F                  
DRYDEN           N/A     43  34  70 N3        29.90F                  
EL PASO        MOCLDY    53  21  28 E9        30.03S                  
FORT STOCKTON  CLOUDY    55  26  32 SW14      29.91S                  
GUADALUPE PASS CLOUDY    50  22  33 SW24G32   30.02F                  
MARFA          CLOUDY    45  22  40 S6        30.05F                  
PECOS          CLOUDY    57  24  27 W13       29.88F                  
PRESIDIO       FAIR      48  26  41 NE3       30.02S                  
$$

TXZ014-016-019-021>030-083-210900
TEXAS TECH WEST TEXAS MESONET/TEXAS PANHANDLE/NORTHERN SOUTH PLAINS
  
CITY           SKY/WX    TMP DP  RH WIND       PRES   REMARKS
ABERNATHY 5ENE   N/A     42  15  33 W8        29.80R                  
AMARILLO 9NNE    N/A     32  20  60 CALM      29.81R                  
AMARILLO 7SSE    N/A     32  19  59 NW5       29.81R WCI  27          
AMHERST 1NE      N/A     51   3  14 W14       29.81R                  
BOOTLEG 11WNW    N/A     52   4  14 NW13      29.87S                  
CANADIAN 6E      N/A     34  25  71 NE1       29.75S                  
CAPROCK CYN SP   N/A     50  12  21 NW9       29.75F                  
CHILDRESS 2NNE   N/A     46  31  56 S7        29.74F                  
CLARENDON 2WSW   N/A     36  24  62 N1        29.75F                  
CLAUDE 12SW      N/A     46  14  27 NW14      29.78F                  
DIMMITT 2NE      N/A     49  11  22 W12       29.82R                  
FLOYDADA 2NNE    N/A     41  16  36 W9        29.77S                  
FRIONA 2NE       N/A     42  11  28 W12       29.83F                  
GOODLETT 3W      N/A     44  31  61 S5        29.74F                  
HART 3N          N/A     37  17  43 W7        29.80S WCI  32          
HEREFORD 2NW     N/A     49   8  18 NW12      29.81S                  
MCLEAN 1E        N/A     37  26  64 N5        29.73F WCI  33          
MEMPHIS 1NE      N/A     37  28  70 N3        29.75F                  
MULESHOE 2SSW    N/A     42   3  20 W12       29.84S                  
OLTON 6S         N/A     50   2  13 W15       29.80R                  
PALO DURO SP     N/A     42  14  32 NW9       29.80F                  
PAMPA 2E         N/A     40  25  54 SW5       29.76F                  
PLAINVIEW 1S     N/A     46  12  25 NW9       29.79R                  
SILVERTON 7ESE   N/A     39  15  37 W8        29.77F WCI  34          
TULIA 2ENE       N/A     38  18  44 W6        29.79F WCI  33          
TURKEY 2WSW      N/A     41  23  48 N5        29.75R                  
UMBARGER 3NNE    N/A     45  14  28 W12       29.80F                  
$$

TXZ033>036-039>041-045>048-210900
TEXAS TECH WEST TEXAS MESONET/SOUTH PLAINS  
  
CITY           SKY/WX    TMP DP  RH WIND       PRES   REMARKS
AIKEN 3WSW       N/A     37  15  41 W8        29.80R WCI  31          
ANDREWS 2NE      N/A     47  23  38 SW9       29.88F                  
ANTON 6SSW       N/A     49  10  20 W14       29.80S                  
BROWNFIELD 2S    N/A     53  12  19 W16       29.82F                  
DENVR CTY 7WNW   N/A     50  10  20 W12       29.86S                  
GAIL 2ESE        N/A     48  30  50 SW14      29.81F                  
LAMESA 2SE       N/A     43  29  59 SW10      29.84F                  
LUBBOCK 3WNW     N/A     48  12  23 W8        29.80F                  
MORTON 1ENE      N/A     51   4  15 W10       29.84S                  
ODONNELL 1N      N/A     45  23  42 SW10      29.81F                  
PLAINS 3N        N/A     44  13  29 W12       29.85S                  
RALLS 1SE        N/A     46  16  29 W8        29.78F                  
REESE CENTER     N/A     47   9  21 W10       29.80S                  
SEAGRAVES 1SW    N/A     49  15  25 W12       29.84F                  
SEMINOLE 2NNE    N/A     52  15  22 W13       29.84F                  
SLATON 2NE       N/A     48  17  29 W13       29.78F                  
SNYDER 3E        N/A     47  35  63 S10       29.82F                  
SUNDOWN 8SW      N/A     53   9  16 W16       29.83S                  
TAHOKA 3NNE      N/A     46  19  33 SW9       29.80F                  
WOLFFORTH 6SSW   N/A     46  14  27 W8        29.81S                  
$$

TXZ031-032-036>038-042>044-210900-
TEXAS TECH WEST TEXAS MESONET/ROLLING PLAINS 
  
CITY           SKY/WX    TMP DP  RH WIND       PRES   REMARKS
ASPERMONT 3NE    N/A     54  33  45 S12       29.77F                  
FLUVANNA 3WNW    N/A     48  30  50 S9        29.81F                  
GRAHAM 5SSW      N/A     49  24  37 W13       29.79F                  
GUTHRIE 10WSW    N/A     50  30  47 S7        29.75F                  
HASKELL 1NW      N/A     52  34  51 S12       29.78F                  
JAYTON 1SSE      N/A     53  32  45 SW13      29.76F                  
KNOX CITY 3NW    N/A     49  33  54 S8        29.78F                  
LK A HENRY 1NW   N/A     53  29  39 SW12      29.78F                  
NORTHFIELD 1S    N/A     46  25  45 W6        29.75F                  
ODELL 4ENE       N/A     48  35  60 SE12      29.77F                  
PADUCAH 10SW     N/A     48  30  49 SW12      29.73F                  
POST 1NE         N/A     54  22  28 SW17      29.76F                  
RRING SPRGS 3N   N/A     51  19  29 W16       29.75F                  
SEYMOUR 3NW      N/A     47  34  61 S6        29.78F                  
SPUR 1W          N/A     48  29  47 SW5       29.75F                  
WEINERT 2NNE     N/A     53  35  49 S9        29.78F                  
WHITE RVR 6NE    N/A     46  25  43 S5        29.76F                  
$$

TXZ052-054-060>062-072-078-127-140-154-169-210900-
TEXAS TECH WEST TEXAS MESONET/PERMIAN BASIN/
CONCHO VALLEY/BIG COUNTRY/EDWARDS PLATEAU
  
CITY           SKY/WX    TMP DP  RH WIND       PRES   REMARKS
COYANOSA 2N      N/A     44  25  47 NE5       29.90S                  
JUNCTION 1SSW    N/A     51  41  69 S7        29.92F                  
MERTZON 3NNE     N/A     48  34  58 S13       29.89F                  
SAN ANGELO 7NW   N/A     51  33  49 SW3       29.88F                  
STRLNG CT 4WSW   N/A     50  34  54 S7        29.87F                  
ST LAWRNCE 5SW   N/A     47  34  59 S8        29.88F                  
SWEETWATR 11SW   N/A     49  35  60 S9        29.85F                  
WALL 1E          N/A     52  36  53 SW16      29.88F                  
$$

TXZ055-058-074-075-080-082-210900-
TEXAS TECH WEST TEXAS MESONET/FAR WEST/SOUTHWEST MOUNTAINS/TRANS PECOS
  
CITY           SKY/WX    TMP DP  RH WIND       PRES   REMARKS
PRSMN GAP BBNP   N/A     52  24  34 S6        29.96F                  
GUADLPE MTN NP   N/A     62   6  11 W33       30.00F                  
$$
  

Return to Home page


Western Regional Climate Center, wrcc@dri.edu